User: anonymous   Login
Location: Carter Cabin
(41.0271°N, 122.9339°W)
Time: 01:32:44
(UTC+00:00)
Language:

ARIANE 5 R/B - Orbit

View from above orbital plane
View from above orbital plane
View from above satellite
View from above satellite

Ground track
Ground track

The orbit data is extracted from the following two-line orbital elements,

1 27387U 02009B   24167.55391012  .00000189  00000-0  79662-4 0  9996
2 27387  98.7975 157.6225 0033194 124.3609 236.0724 14.36402257168268
Epoch (UTC): 15 June 2024 13:17:37
Eccentricity: 0.0033194
inclination: 98.7975°
perigee height: 746 km
apogee height: 794 km
right ascension of ascending node: 157.6225°
argument of perigee: 124.3609°
revolutions per day: 14.36402257
mean anomaly at epoch: 236.0724°
orbit number at epoch: 16826

The dashed part of the orbit path shows where the satellite is in the earth's shadow,  

DLR